Location: Unspecified
(0.0000°N, 0.0000°E)
Time: 16:45:35
(UTC+02:00)

Delta 168 - Visible Passes

Search period start: 24 July 2014 00:00
Search period end: 03 August 2014 00:00
Orbit: 395 x 2119 km, 25.3° (Epoch: 24 July)

Date Brightness Start Highest point End Pass type
(mag) Time Alt. Az. Time Alt. Az. Time Alt. Az.
24 Jul 5.3 06:14:42 15° NNW 06:17:26 25° NNE 06:22:15 10° E visible
24 Jul 6.1 22:15:23 10° WNW 22:20:05 18° NNW 22:23:47 10° N visible
25 Jul 4.7 06:13:19 23° N 06:15:01 31° NNE 06:20:02 10° E visible
25 Jul 6.3 22:13:30 10° WNW 22:17:41 15° NNW 22:21:07 10° N visible
26 Jul 4.1 06:11:55 37° N 06:12:37 39° NNE 06:17:44 10° E visible
26 Jul 6.4 22:11:43 10° WNW 22:15:20 14° NNW 22:18:22 10° N visible
27 Jul 3.6 06:10:32 52° NE 06:10:32 52° NE 06:15:21 10° ESE visible
27 Jul 6.6 22:10:06 10° NW 22:13:00 12° NNW 22:15:33 10° N visible
28 Jul 3.8 06:09:06 46° E 06:09:06 46° E 06:12:53 10° ESE visible
28 Jul 6.8 22:08:38 10° NW 22:10:43 11° NNW 22:12:38 10° N visible
29 Jul 4.4 06:07:37 30° SE 06:07:37 30° SE 06:10:21 10° ESE visible
29 Jul 6.8 22:07:30 10° NNW 22:08:29 10° NNW 22:09:26 10° NNW visible
30 Jul 5.0 06:06:05 20° SE 06:06:05 20° SE 06:07:44 10° SE visible
31 Jul 5.5 06:04:30 13° SE 06:04:30 13° SE 06:05:02 10° SE visible
